George/Botha, South Africa

7:57 PM SAST on February 24, 2017 (GMT +0200)
George

Weather History for FAGG - July, 2014

Change the Weather History Date:

Tuesday, July 15, 2014

  Actual Average Record
Temperature  
Mean Temperature 57 °F -  
Max Temperature 73 °F 64 °F 82 °F (2001)
Min Temperature 41 °F 44 °F 38 °F (2015)
Degree Days  
Heating Degree Days 8    
Growing Degree Days 7 (Base 50)    
Moisture  
Dew Point 44 °F    
Average Humidity 63    
Maximum Humidity 93    
Minimum Humidity 31    
Precipitation  
Precipitation 0.00 in - - ()
Sea Level Pressure  
Sea Level Pressure 30.13 in    
Wind  
Wind Speed 3 mph ()    
Max Wind Speed 6 mph    
Max Gust Speed -    
Visibility 10.7 miles    
Events      
Averages and records for this station are not official NWS values.
T = Trace of Precipitation, MM = Missing Value Source: Averaged Metar Reports

Daily Weather History Graph

Daily Weather History Graph

Search for Another Location

Airport or City:

Trip Planner

Search our weather history database for the weather conditions in past years. The results will help you decide how hot, cold, wet, or windy it might be!

Date:

Astronomy

Jul. 15, 2014 Rise Set
Actual Time 7:33 AM SAST 5:39 PM SAST
Civil Twilight 7:06 AM SAST 6:06 PM SAST
Nautical Twilight 6:35 AM SAST 6:37 PM SAST
Astronomical Twilight 6:05 AM SAST 7:07 PM SAST
Moon 9:26 PM SAST (7/15) 9:29 AM SAST (7/15)
Length of Visible Light 11h 00m
Length of Day
10h 05m
Waning Gibbous, 87% of the Moon is Illuminated
Jul 15
Waning Gibbous
Jul 19
Last Quarter
Jul 27
New
Aug 4
First Quarter
Aug 10
Full

Hourly Weather History & Observations

Time (SAST) Temp. Windchill Dew Point Humidity Pressure Visibility Wind Dir Wind Speed Gust Speed Precip Events Conditions
2:00 AM 44 °F - 41 °F 87% 30.27 in 12 mi NNW 3.5 mph - -  
3:00 AM 42.8 °F 40.1 °F 41.0 °F 93% 30.21 in 6.2 mi NNW 4.6 mph - N/A   Unknown
4:00 AM 44.6 °F 43.1 °F 41.0 °F 87% 30.21 in 6.2 mi NNW 3.5 mph - N/A   Unknown
5:00 AM 45 °F - 42 °F 85% 30.20 in 12 mi NNW 3.5 mph - -   Clear
5:00 AM 44.6 °F 43.1 °F 42.8 °F 93% 30.18 in - NNW 3.5 mph - N/A   Clear
6:00 AM 44.6 °F 43.1 °F 41.0 °F 87% 30.18 in - North 3.5 mph - N/A   Clear
7:00 AM 46.4 °F 45.2 °F 42.8 °F 87% 30.18 in - NW 3.5 mph - N/A   Clear
8:00 AM 47 °F - 45 °F 88% 30.18 in 12 mi 2.3 mph - -   Clear
8:00 AM 46.4 °F - 44.6 °F 93% 30.15 in - Variable 2.3 mph - N/A   Clear
9:00 AM 53.6 °F - 48.2 °F 82% 30.18 in - Variable 1.2 mph - N/A   Clear
10:00 AM 59.0 °F - 51.8 °F 77% 30.15 in - Calm Calm - N/A   Clear
11:00 AM 64 °F - 45 °F 38% 30.18 in 12 mi South 3.5 mph - -  
11:00 AM 64.4 °F - 44.6 °F 49% 30.15 in - South 3.5 mph - N/A   Clear
12:00 PM 69.8 °F - 42.8 °F 38% 30.15 in - Variable 1.2 mph - N/A   Clear
1:00 PM 73.4 °F - 41.0 °F 31% 30.09 in - Variable 2.3 mph - N/A   Clear
2:00 PM 70 °F - 48 °F 34% 30.08 in 12 mi South 5.8 mph - -   Clear
2:00 PM 69.8 °F - 48.2 °F 46% 30.09 in - South 5.8 mph - N/A   Clear
3:00 PM 69.8 °F - 48.2 °F 46% 30.06 in - SSE 5.8 mph - N/A   Clear
4:00 PM 68.0 °F - 44.6 °F 43% 30.06 in - SSE 5.8 mph - N/A   Clear
5:00 PM 66 °F - 44 °F 34% 30.06 in 12 mi ESE 4.6 mph - -   Clear
5:00 PM 66.2 °F - 42.8 °F 43% 30.06 in - ESE 3.5 mph - N/A   Clear
6:00 PM 64.4 °F - 41.0 °F 42% 30.06 in - East 4.6 mph - N/A   Clear
7:00 PM 55.4 °F - 42.8 °F 63% 30.06 in - North 4.6 mph - N/A   Clear
8:00 PM 54 °F - 40 °F 48% 30.07 in 12 mi NNE 4.6 mph - -   Clear
8:00 PM 53.6 °F - 41.0 °F 62% 30.06 in - NNE 5.8 mph - N/A   Clear